Wind_Speed
98 96 91 86 82 81 81 83 83 80 77 74 71 70 67 64 64 62 62 63 62 60 57 54 53 53 54 54 54 53 54 54 53 51 49 49 50 50 51 51 52 53 53 53 54 54 51 50 52 53 53 52 51 50 49 49 48 48 48 47 47 46 47 47 48 47 48 50 50 50 50 50 50 51 50 50 50 49 49 49 48 48 47 47 45 43
103 97 91 86 85 84 83 86 86 81 78 76 73 72 69 67 68 66 65 65 63 60 58 55 53 52 53 52 51 51 51 52 52 51 50 50 50 50 50 51 51 50 50 51 51 50 48 48 50 51 51 51 50 50 50 49 49 49 48 47 46 45 45 46 46 47 48 50 50 50 50 50 50 50 49 49 48 47 47 48 47 47 47 47 46 45
104 97 92 90 89 87 85 85 84 80 79 77 76 75 72 70 69 68 66 65 63 61 59 56 53 52 52 50 49 48 48 50 50 50 50 50 50 49 49 50 49 47 47 48 48 46 44 45 47 48 47 47 47 48 48 49 49 49 48 46 45 44 44 45 46 47 49 50 50 49 48 47 44 44 44 43 44 44 43 43 44 46 47 49 48 46
103 97 95 95 92 89 86 85 82 80 80 79 78 77 73 71 70 68 67 65 64 62 60 57 53 52 51 48 45 45 46 48 48 47 47 46 46 47 48 48 46 46 46 47 46 44 42 44 45 45 44 44 44 45 45 46 47 46 45 44 43 43 43 45 46 48 48 48 48 44 41 41 39 39 40 40 41 42 40 38 38 39 42 44 45 45
106 102 101 98 93 91 89 86 83 81 80 79 78 76 73 71 70 71 69 67 66 64 60 57 55 54 50 46 43 43 44 45 44 44 43 42 43 44 44 44 44 45 46 46 45 44 44 45 45 45 44 43 43 43 43 43 42 42 41 40 39 39 40 42 44 45 43 44 44 39 37 38 37 37 37 38 39 39 36 33 30 28 28 31 35 39
112 110 106 100 95 93 91 88 84 80 79 78 76 75 72 71 72 73 70 68 67 64 60 59 57 54 50 46 44 42 42 41 41 41 40 41 41 40 40 41 43 44 44 43 43 43 45 45 44 44 43 43 43 42 41 40 39 37 35 33 33 33 35 37 38 40 40 40 39 37 37 37 37 36 36 37 38 35 34 33 29 24 23 28 33 36
117 113 107 100 96 96 93 90 85 81 79 77 76 74 72 71 74 74 71 69 67 63 61 60 56 54 51 48 44 42 40 40 41 40 39 39 38 37 39 41 41 41 41 41 40 41 43 42 42 42 42 42 42 41 40 38 36 31 27 27 27 28 32 34 33 33 34 32 32 34 35 35 34 34 34 35 34 34 34 33 31 25 23 29 35 38
117 113 106 101 99 98 95 91 87 82 79 77 76 74 72 73 75 74 71 69 67 65 62 59 57 55 52 49 46 44 42 41 40 38 37 36 35 36 38 38 38 38 38 39 39 40 40 39 39 39 39 40 40 40 39 37 32 24 22 26 27 28 33 35 34 32 29 27 28 30 32 33 33 33 35 35 36 36 33 31 28 24 25 30 33 36
112 109 105 102 101 98 94 92 88 83 81 78 75 74 73 75 76 74 72 70 68 65 61 59 58 55 52 50 48 46 43 41 39 38 37 36 37 38 38 37 36 36 37 38 38 38 37 37 36 37 37 38 38 38 37 33 27 23 27 32 32 33 35 35 36 36 33 32 31 31 32 34 33 31 31 32 34 34 32 31 29 28 33 37 35 35
108 108 107 105 101 97 95 93 89 85 82 78 75 74 75 76 76 74 73 70 67 63 60 58 56 53 52 51 48 45 42 40 39 39 39 39 39 39 38 37 36 36 37 37 36 36 36 36 36 36 36 36 37 37 34 30 26 30 37 36 31 34 37 37 39 39 38 38 36 35 36 35 32 30 29 29 30 30 27 28 30 30 35 40 39 38
108 110 110 107 103 99 96 93 89 86 83 78 76 76 76 77 76 74 72 70 65 60 57 55 53 53 52 50 47 44 41 41 41 41 41 41 40 40 39 37 36 37 38 37 36 36 36 35 35 35 35 35 36 35 33 29 30 36 39 36 33 36 40 40 41 42 42 41 39 39 39 36 34 33 32 32 33 32 30 31 33 34 36 39 41 42
107 112 111 107 103 101 97 93 90 87 83 80 79 78 77 77 76 73 72 67 60 56 55 53 52 52 50 48 47 44 44 44 43 43 43 42 41 41 40 39 38 40 39 38 38 37 36 35 36 36 36 36 35 34 31 30 34 36 35 33 34 38 42 41 42 43 45 44 41 41 41 40 38 35 34 33 33 33 32 32 34 36 37 39 41 43
107 110 109 106 103 99 95 93 91 89 85 82 81 79 76 75 73 70 66 60 55 54 52 49 49 48 46 46 45 43 45 44 44 45 45 43 42 41 40 39 40 41 40 39 38 37 37 37 37 36 36 36 34 33 31 30 33 33 30 31 33 36 42 44 43 44 45 46 44 41 40 40 38 36 34 32 31 31 31 32 33 35 39 40 42 42
107 109 107 105 102 98 95 93 90 87 83 80 78 76 74 72 68 64 59 55 53 51 48 47 46 43 42 44 42 42 44 44 45 46 43 41 39 37 37 37 37 38 37 37 37 36 37 37 37 36 36 35 33 32 30 30 32 30 28 31 34 36 42 46 44 43 44 46 45 41 38 37 36 36 34 33 32 32 34 36 36 36 39 42 42 40
106 107 105 103 100 98 95 92 88 85 82 79 77 76 74 69 64 61 58 55 52 49 47 46 43 40 39 40 39 41 43 43 43 41 36 34 33 32 32 33 33 33 33 34 35 35 36 36 36 36 35 35 33 32 30 30 31 29 27 30 33 36 43 47 45 44 45 45 43 40 39 39 37 35 34 34 34 34 36 39 38 37 39 41 41 39
104 106 104 101 99 98 95 92 90 87 84 82 80 78 73 69 65 62 59 56 52 49 48 45 41 38 37 37 38 40 41 40 38 34 31 30 29 29 29 29 30 31 32 34 35 36 36 35 35 35 35 34 33 32 31 31 31 29 28 29 32 36 43 47 48 48 47 44 41 40 40 39 36 34 33 32 33 36 38 39 38 37 38 39 40 40
104 106 106 104 101 98 96 93 90 87 84 82 79 75 72 68 64 60 57 55 52 49 48 46 42 39 38 38 40 39 38 37 34 32 31 29 29 29 28 28 30 31 32 34 34 35 35 34 34 34 34 34 33 33 32 32 32 30 31 34 37 41 44 46 48 49 47 45 42 41 40 37 34 33 32 32 35 38 39 40 40 38 37 39 40 41
104 107 106 103 101 98 96 93 90 87 84 81 78 75 71 66 61 59 57 54 53 52 50 47 43 42 41 41 41 39 37 36 33 32 31 30 30 29 28 29 30 31 31 31 32 33 33 33 33 33 33 33 33 33 33 33 33 32 35 39 40 41 43 43 44 45 46 46 43 41 40 37 35 33 33 36 39 39 40 41 42 39 39 40 42 42
105 107 106 104 102 100 96 93 90 88 84 81 80 77 70 65 62 61 58 55 54 53 50 47 45 44 43 42 41 39 38 36 34 33 32 32 32 31 30 32 32 31 30 29 30 31 32 32 32 32 32 32 32 33 33 33 33 33 36 37 37 38 40 42 42 41 42 43 43 42 40 38 36 35 35 39 41 42 42 42 41 41 41 43 45 45
103 107 108 106 103 101 97 93 89 86 83 81 79 74 70 68 66 63 60 58 56 54 50 48 46 43 42 41 41 40 38 37 35 34 35 35 34 33 33 33 32 30 28 28 28 29 30 31 30 30 29 30 31 32 33 33 33 33 34 34 33 36 39 41 41 41 39 39 40 41 40 38 37 37 37 40 43 44 44 42 41 41 42 44 46 47
103 107 108 106 103 100 96 92 88 84 83 81 77 72 69 68 65 62 61 60 57 54 51 48 45 43 42 43 44 42 39 37 36 36 37 37 35 35 35 34 32 29 27 25 25 26 28 29 29 28 28 28 29 31 33 33 33 33 32 31 32 35 37 38 39 40 39 37 39 39 38 36 37 38 39 41 43 44 43 41 41 41 42 44 45 45
103 107 107 105 101 97 94 92 89 86 83 80 77 73 70 67 65 62 60 59 57 54 51 49 46 44 44 46 47 43 39 37 37 38 38 36 35 36 35 33 31 28 26 25 25 25 26 27 28 28 27 28 29 30 32 33 32 32 30 30 31 33 35 35 36 37 37 37 37 37 36 36 37 38 40 41 41 41 42 43 44 44 44 44 44 43
101 104 105 103 100 98 96 93 90 86 83 80 78 76 72 69 66 64 62 60 58 54 51 49 46 44 46 49 48 42 38 37 38 38 36 36 36 36 35 33 30 28 27 26 26 25 25 27 28 28 28 28 28 29 31 31 31 30 29 29 30 32 34 35 35 36 37 39 37 36 35 36 38 39 41 41 40 40 43 46 47 46 45 44 44 45
101 104 105 105 103 101 98 94 91 87 84 82 79 75 70 68 67 65 63 61 58 55 53 51 48 46 48 50 47 41 39 38 38 37 37 37 38 36 34 32 30 29 29 28 27 26 26 27 28 29 29 28 28 29 30 31 30 29 28 28 29 30 32 34 35 36 38 39 38 37 37 38 39 39 40 40 40 41 42 45 46 46 45 46 46 47
102 106 108 107 105 103 99 95 90 85 82 79 76 72 69 69 67 64 61 59 58 56 54 52 50 49 51 51 47 43 40 39 38 38 38 38 38 36 33 32 32 31 31 30 28 27 26 27 28 29 29 28 28 28 29 30 30 29 28 28 28 29 31 33 35 37 39 39 39 39 39 39 38 38 39 41 42 43 45 46 47 49 50 51 51 51
102 106 107 106 102 97 92 87 82 78 77 76 75 72 71 70 67 63 60 59 58 56 54 53 51 51 53 52 48 44 41 39 38 38 39 39 37 34 33 33 33 33 32 31 29 27 26 26 27 28 29 28 27 27 29 29 29 29 28 28 28 29 30 32 34 37 39 41 41 41 41 40 39 39 41 43 44 46 47 49 51 53 54 54 53 52
99 103 104 102 97 91 85 81 78 77 75 75 74 73 71 69 68 66 63 61 58 57 56 54 53 54 55 53 49 44 41 40 40 39 40 39 37 35 34 34 34 34 33 31 29 27 26 25 26 27 27 27 27 27 28 29 29 29 28 27 28 29 31 32 33 35 38 40 43 43 42 41 41 42 44 46 48 49 49 50 51 52 53 53 52 52
95 99 100 99 96 93 89 86 83 81 79 77 75 73 72 71 69 67 64 61 59 58 57 56 55 56 56 53 49 45 42 41 41 40 40 40 38 36 36 35 35 34 32 31 30 28 26 24 24 25 26 26 26 26 27 28 28 28 28 28 28 29 30 31 33 34 36 38 41 44 45 44 44 45 46 48 50 51 52 52 52 53 53 53 53 53
93 97 98 98 96 93 90 86 83 81 79 78 76 74 73 71 69 66 64 63 61 59 57 56 56 56 55 52 49 46 43 42 42 41 41 40 38 38 37 36 35 34 33 32 30 28 26 24 22 23 24 25 26 26 26 26 27 28 28 28 28 28 29 30 31 33 35 37 39 42 44 46 48 49 50 51 52 54 55 56 56 56 54 53 52 51
89 95 97 97 95 91 88 86 84 82 79 78 76 74 72 71 69 67 65 64 62 60 59 57 56 56 54 52 49 46 44 43 43 43 42 41 40 39 38 37 35 35 33 31 30 28 26 24 22 23 24 25 26 26 26 26 27 27 27 27 27 27 27 29 30 32 34 36 38 39 41 44 47 49 50 52 53 55 56 56 55 54 53 51 50 48
86 93 95 96 94 92 89 87 84 82 80 79 78 76 73 71 69 67 66 65 63 62 61 60 58 56 55 52 49 47 45 44 44 43 43 42 41 40 39 37 36 35 33 30 29 29 27 25 23 23 24 25 25 26 26 26 26 26 26 26 26 26 26 28 30 32 33 35 37 38 39 41 43 44 45 47 48 49 51 51 51 50 49 48 47 47
84 91 95 96 95 93 90 87 84 82 81 80 79 76 74 72 69 68 66 65 64 63 62 61 59 58 55 52 49 47 46 45 45 45 44 43 42 41 40 38 37 36 33 31 30 30 28 26 24 24 24 24 25 26 26 26 25 25 24 24 25 25 25 27 29 31 33 34 36 38 39 40 41 41 42 43 45 46 46 47 47 47 46 46 46 47
81 89 94 96 95 93 90 87 85 83 81 79 77 75 73 71 70 68 67 65 63 62 61 61 60 59 56 53 50 48 47 47 47 46 45 44 43 42 40 39 39 36 33 32 31 30 28 26 24 23 24 24 25 25 26 25 24 24 23 22 24 26 27 28 29 30 32 34 35 37 38 38 39 40 41 42 43 44 44 44 45 45 45 46 46 46
79 87 93 95 95 93 90 88 86 83 79 75 73 73 73 71 70 68 67 65 63 62 61 60 59 58 56 54 52 51 50 50 49 48 47 45 43 41 40 40 39 36 34 32 31 30 28 26 24 24 24 25 25 25 25 25 25 25 24 24 27 29 29 30 30 30 31 33 34 35 36 36 37 38 39 40 41 42 43 43 43 43 44 44 44 45
77 85 91 93 94 92 90 88 85 81 77 75 73 73 73 72 71 70 68 67 65 63 61 60 59 57 56 55 53 53 52 52 51 50 48 46 44 42 41 40 38 36 34 33 31 30 29 27 26 25 25 25 25 24 25 26 26 26 27 27 29 31 32 32 31 31 31 32 32 33 33 33 34 35 37 38 40 40 41 41 41 41 42 42 43 43
74 83 89 92 92 91 89 86 82 80 78 77 75 73 72 72 71 69 68 66 64 62 61 59 58 57 56 56 55 54 53 53 52 51 50 48 45 43 42 40 38 36 35 33 31 30 30 29 28 27 26 26 25 25 26 28 28 28 29 30 30 31 32 33 33 32 32 32 32 31 31 31 32 33 35 37 38 38 39 39 39 40 41 41 42 41
71 79 86 89 89 88 86 84 83 81 80 78 76 73 71 70 68 67 67 65 63 62 61 60 59 58 57 57 56 55 54 54 54 53 51 48 46 43 42 40 39 37 35 34 32 32 32 31 31 29 28 27 27 26 27 28 29 30 31 31 32 32 32 33 32 32 31 31 31 30 30 31 31 32 33 34 35 35 36 37 38 39 39 39 39 38
69 75 82 86 88 87 86 84 83 82 81 78 75 73 70 69 68 67 67 65 64 62 61 61 60 59 58 58 57 57 56 56 55 53 51 48 45 43 42 41 39 38 37 35 34 34 34 33 32 32 30 28 26 26 26 27 28 30 31 32 32 31 31 30 29 28 28 28 29 30 30 30 30 30 31 32 33 34 35 35 36 36 35 35 35 35
67 73 80 85 87 87 86 84 82 81 80 77 75 73 71 70 68 67 66 65 64 63 62 61 61 60 59 58 58 57 56 55 54 53 51 48 46 44 43 41 40 38 37 36 36 36 35 35 35 34 31 29 27 25 25 25 27 29 30 30 29 28 28 28 27 27 26 27 29 30 29 28 28 29 30 31 33 33 33 33 33 33 33 34 35 36
66 72 78 83 86 86 85 83 81 79 78 77 75 73 71 70 69 68 66 64 62 62 61 61 61 61 60 59 58 57 56 54 52 51 50 47 46 45 43 41 40 38 38 38 38 38 37 37 36 35 32 30 28 27 26 26 27 28 29 29 28 27 27 28 29 28 26 27 30 31 29 28 29 30 31 32 33 34 33 32 32 32 34 37 39 41
65 70 75 80 84 85 84 82 81 80 78 76 75 74 72 71 70 67 65 64 63 62 62 62 62 61 60 59 59 58 56 55 53 52 49 47 45 44 43 41 40 40 40 40 40 39 38 37 37 36 34 32 31 30 29 28 27 28 28 29 30 30 31 32 33 31 28 31 35 35 33 33 33 33 35 36 36 37 36 35 34 34 37 41 43 44
63 68 72 77 81 83 83 83 81 80 79 77 75 74 73 71 69 67 66 65 64 63 62 62 62 61 60 59 59 58 57 56 55 53 51 48 46 44 43 42 41 42 42 41 40 39 38 38 38 38 36 35 33 32 30 29 29 28 29 29 30 31 33 34 36 35 34 36 39 38 37 38 38 38 39 40 41 42 42 39 37 36 39 44 46 46
62 66 70 74 78 80 82 81 79 78 78 77 75 74 72 69 68 68 68 66 65 63 63 62 62 61 60 59 58 58 58 57 56 53 51 49 47 45 43 43 43 43 43 42 41 40 40 40 40 39 38 37 36 34 33 31 31 30 29 29 29 30 32 34 36 37 37 38 39 39 40 41 42 43 43 43 44 46 46 44 42 40 41 44 45 46
61 64 68 71 74 76 77 77 76 75 75 75 74 73 71 70 70 69 68 66 65 64 63 62 61 60 59 59 59 58 58 57 56 54 51 49 47 46 44 44 44 44 44 43 43 42 42 41 40 40 40 39 38 37 36 34 33 32 31 30 30 30 31 33 35 35 35 36 38 39 40 40 42 44 45 45 45 47 49 48 46 44 44 45 46 47
60 63 66 69 71 73 74 74 74 74 73 72 72 71 71 71 70 69 68 66 65 63 62 61 60 59 59 58 58 58 58 57 55 53 52 50 49 47 46 46 46 46 45 45 44 44 43 43 42 41 41 41 40 40 39 37 35 34 32 31 31 32 32 33 33 33 35 37 38 40 41 42 42 43 45 47 48 49 50 50 48 48 50 51 51 52
60 63 65 67 69 71 72 73 73 72 71 70 70 70 70 70 69 69 68 66 65 63 62 61 59 58 58 58 58 58 57 56 54 53 52 51 50 48 47 47 47 47 47 46 45 45 45 44 44 43 43 42 42 42 41 40 39 38 36 34 35 36 36 35 36 37 38 39 41 42 44 45 46 46 46 48 50 51 52 52 52 52 53 54 55 55
61 63 65 66 68 69 70 71 71 70 69 69 69 68 68 68 68 67 67 66 65 64 62 61 60 59 58 58 57 57 56 54 54 53 52 52 50 49 48 47 47 48 47 47 47 47 46 46 45 44 44 44 44 43 43 43 42 42 40 39 39 40 39 39 40 41 41 41 43 44 46 47 49 50 50 50 52 52 53 53 53 53 53 54 54 55
61 63 65 66 68 69 70 70 70 69 69 68 68 68 68 67 67 66 65 65 64 63 62 61 60 59 58 57 57 56 55 54 54 54 53 52 51 50 49 48 48 48 49 49 49 49 48 47 46 46 45 45 45 45 45 45 45 45 43 42 42 43 43 43 43 43 43 44 45 46 47 49 50 51 52 53 54 55 55 55 54 54 55 56 57 58
62 63 65 67 68 70 70 70 70 70 69 69 68 68 68 67 67 66 65 64 63 62 61 60 60 59 58 57 56 56 56 55 55 54 54 53 52 51 50 50 51 51 51 51 51 50 50 49 48 47 47 47 47 47 48 48 47 47 46 45 45 45 46 45 45 44 45 45 46 46 48 49 50 51 52 53 55 57 58 58 58 58 58 60 61 62
61 63 65 67 68 69 70 70 70 71 71 70 70 69 69 68 67 66 65 64 62 61 60 60 59 59 58 58 57 57 56 56 55 54 54 53 53 53 53 53 53 53 53 53 53 52 51 51 50 49 49 49 49 50 50 50 49 49 48 48 47 47 47 47 46 46 46 46 47 48 48 49 50 51 52 53 54 56 57 59 60 61 62 63 64 63
58 61 64 66 68 69 70 71 71 72 72 72 71 70 70 69 68 67 65 64 63 61 61 60 60 59 59 58 58 57 57 56 56 55 55 55 55 55 55 55 55 55 55 54 54 53 53 52 51 51 51 51 51 51 51 51 51 51 50 50 49 49 48 48 47 47 47 47 48 48 48 49 50 51 52 52 53 54 55 56 57 59 61 63 63 63
Wind_Direction
226 227 227 226 225 225 224 224 225 224 225 225 225 226 226 227 228 227 228 230 230 230 231 231 231 231 232 233 233 233 235 236 238 238 238 240 241 241 242 243 243 244 245 246 247 248 249 250 250 250 251 252 253 254 254 255 255 255 255 256 256 257 258 258 260 261 261 262 263 264 265 266 267 269 270 271 273 275 275 276 277 279 280 281 281 281
224 224 225 225 224 223 222 223 224 223 224 224 225 226 225 226 228 227 227 230 230 230 230 230 230 231 232 233 234 234 235 237 238 239 238 239 240 241 242 243 243 244 245 247 248 249 249 249 250 251 251 252 253 254 254 255 255 255 256 256 257 259 259 261 262 263 263 263 263 264 265 267 267 268 269 270 272 273 274 275 275 276 277 277 277 277
223 222 223 224 224 223 221 222 222 221 222 223 224 224 224 225 226 227 227 229 230 230 230 230 230 231 232 232 233 234 236 238 239 239 239 240 241 243 244 245 246 247 248 249 250 250 250 250 251 251 251 251 252 252 253 254 254 255 256 257 258 260 261 263 263 263 263 263 264 265 265 265 265 266 269 270 271 272 275 276 275 275 275 274 273 272
222 221 222 223 223 222 221 221 221 220 220 220 222 223 222 223 225 226 227 228 229 229 229 230 230 231 232 232 233 234 235 238 239 240 242 243 244 245 246 248 249 250 250 250 251 251 250 249 249 250 250 250 250 251 252 252 254 255 256 258 259 261 262 263 263 263 264 265 267 265 263 262 262 265 268 270 272 274 277 279 277 274 272 270 268 267
220 220 221 221 222 222 221 220 220 219 218 219 220 221 221 222 224 225 226 226 227 227 226 227 228 230 232 231 232 232 234 237 239 240 241 242 243 244 246 248 248 248 248 249 250 250 249 248 248 249 249 249 250 250 251 252 253 255 257 259 261 263 264 264 264 265 266 268 268 263 257 258 262 265 266 269 275 275 273 276 276 268 262 261 262 263
218 218 219 219 220 221 220 219 219 218 218 218 219 220 220 221 223 225 225 225 226 226 225 226 227 228 230 230 230 231 233 236 238 239 239 240 241 243 245 245 246 247 247 248 248 248 248 248 248 249 249 249 249 250 251 252 253 256 259 262 264 266 266 266 267 267 267 267 268 265 260 260 265 267 266 269 273 271 268 269 268 260 251 252 259 262
216 217 217 216 217 218 219 218 218 217 217 217 218 219 219 221 223 224 224 224 225 225 225 225 226 227 228 228 228 229 231 233 235 237 237 239 240 242 243 244 245 246 247 247 247 247 248 248 249 249 250 250 250 250 251 251 253 256 262 270 271 265 261 260 261 264 266 262 261 266 268 267 270 271 268 265 265 266 267 265 260 255 249 250 259 264
213 215 215 215 215 216 216 216 216 215 215 216 217 218 219 220 222 223 223 224 224 224 223 224 224 226 227 227 227 227 227 229 232 235 237 239 239 240 241 242 244 245 246 247 247 247 249 250 250 250 250 250 250 250 250 250 251 251 253 260 258 250 250 252 252 255 260 255 250 257 266 269 272 272 266 261 260 263 265 264 258 250 246 250 259 267
210 211 212 214 215 215 215 215 214 214 214 214 215 217 217 219 221 221 222 222 223 223 223 224 224 225 227 227 227 227 227 229 231 234 236 236 237 238 240 241 243 245 246 247 248 249 249 250 250 249 249 249 249 249 248 248 247 238 234 239 242 242 245 248 250 251 254 255 251 250 257 263 266 265 263 262 262 263 264 263 258 249 248 253 259 266
206 208 210 211 213 213 214 214 213 213 213 212 213 215 216 218 219 219 220 221 222 222 222 223 224 225 226 227 228 228 229 230 231 233 234 235 236 238 240 242 244 246 247 247 248 249 249 249 249 249 249 249 248 247 246 243 238 229 226 229 237 245 245 245 249 250 251 252 251 250 252 254 254 256 260 263 264 265 263 258 256 254 254 254 256 260
202 205 208 209 210 211 212 212 212 212 212 210 211 214 215 217 218 218 219 220 221 221 222 223 223 223 224 225 226 226 227 228 228 230 232 234 237 239 241 242 244 245 246 248 249 249 249 249 249 249 248 248 247 246 243 237 233 229 226 223 229 242 245 244 247 248 248 248 248 250 251 250 252 256 259 261 264 266 263 255 255 259 258 255 254 257
199 202 205 207 208 209 210 211 211 211 211 210 210 213 214 215 216 217 218 219 219 220 221 221 221 222 222 223 224 223 223 225 226 228 232 234 236 238 240 242 243 245 247 248 249 249 249 249 248 248 247 247 246 246 242 235 232 231 227 222 226 240 246 245 246 246 246 248 247 247 250 252 255 257 258 261 265 265 261 257 256 255 254 255 255 258
197 200 203 205 207 208 209 209 210 210 209 209 210 212 214 216 216 216 217 217 217 218 219 218 218 219 219 221 221 221 223 225 227 230 233 235 238 240 242 244 245 247 249 249 249 249 249 248 247 247 247 247 246 245 242 236 233 231 226 223 225 238 246 244 245 245 245 248 247 246 250 254 257 257 259 262 263 259 255 256 257 253 251 253 256 262
196 199 201 203 205 206 207 208 209 210 209 209 211 213 215 217 217 216 215 215 216 215 214 214 214 213 213 216 217 219 223 225 227 230 233 236 239 242 244 246 247 249 250 250 250 249 248 248 247 247 247 248 247 246 242 237 235 228 223 226 227 234 244 244 243 244 245 247 246 246 248 250 254 255 257 259 258 255 253 254 257 255 252 254 259 264
195 197 199 201 203 205 206 207 208 208 209 209 210 212 214 215 215 214 213 213 212 210 208 209 208 206 209 212 213 217 221 223 227 231 233 236 239 241 243 245 247 248 247 247 246 246 246 246 247 247 247 248 247 247 244 239 235 224 221 231 232 235 243 243 239 239 242 244 244 243 244 246 249 251 253 255 253 251 251 254 256 256 256 259 262 264
194 195 198 200 202 204 205 206 206 206 206 207 209 211 212 213 212 210 209 209 207 204 205 207 205 204 207 210 213 217 220 223 226 229 231 233 236 238 240 242 244 243 243 243 243 243 244 244 245 245 246 247 246 246 244 240 235 223 220 231 233 234 240 242 239 237 239 241 240 241 244 245 246 246 248 250 248 247 251 255 256 256 259 262 263 263
192 193 196 199 201 203 204 205 205 205 205 206 207 209 211 211 210 209 207 206 203 201 203 204 202 202 206 209 213 217 220 223 224 225 227 229 231 234 236 238 240 241 242 243 244 244 245 245 246 245 245 245 244 244 243 241 237 226 219 225 228 232 239 241 239 237 237 238 238 239 241 240 238 240 242 243 243 247 253 256 257 257 260 262 261 262
191 193 195 197 199 202 204 204 204 204 204 205 205 207 209 209 207 207 206 204 201 200 202 202 201 202 205 210 214 216 218 221 221 223 225 228 230 233 235 237 240 242 243 245 245 246 246 246 246 245 245 244 243 243 242 241 239 231 224 226 229 233 239 240 237 235 235 235 236 237 236 234 234 237 239 240 243 248 253 254 255 257 258 259 260 262
190 191 193 196 198 201 203 204 204 203 203 204 205 205 205 204 204 204 203 202 202 202 203 203 202 205 208 211 215 217 218 219 219 221 224 227 230 231 233 236 239 242 244 246 247 246 246 246 247 247 247 246 244 243 243 242 240 236 233 233 235 235 237 237 235 233 233 234 235 236 235 235 236 238 239 242 245 248 250 253 255 256 257 259 260 263
189 190 193 195 197 199 201 202 203 203 202 203 205 205 203 202 201 201 200 200 202 203 204 205 206 207 210 214 218 219 219 219 219 220 223 226 229 231 234 238 241 244 248 251 252 251 250 249 249 248 248 248 246 244 243 242 241 239 238 237 239 239 238 237 236 234 233 233 233 234 236 236 236 236 237 240 243 245 249 253 256 258 260 261 262 263
188 189 192 195 197 198 199 200 202 202 202 202 203 203 203 202 201 200 200 200 202 203 204 206 207 208 210 214 218 219 219 220 220 222 224 227 231 234 237 242 245 249 252 256 257 256 254 251 249 249 248 247 246 244 243 243 241 240 239 238 239 241 240 238 236 234 234 233 232 233 234 235 235 235 235 237 240 244 249 254 256 258 260 260 261 264
188 189 191 194 196 198 199 200 200 200 201 201 201 201 201 201 200 200 200 201 202 202 204 206 207 208 210 214 217 219 220 221 222 224 227 230 233 237 240 244 248 252 255 257 258 257 255 252 249 249 249 248 247 246 245 245 244 243 241 239 239 240 240 238 235 232 230 228 229 231 233 234 234 234 235 236 240 245 250 253 254 255 256 257 260 264
188 189 191 193 195 197 199 199 199 199 199 199 200 199 198 198 199 199 199 200 201 202 203 206 208 209 211 215 219 222 222 223 225 227 229 231 234 237 241 245 248 252 253 255 256 256 254 252 249 249 249 249 248 247 247 246 245 244 242 239 239 239 238 237 234 230 226 225 227 230 232 233 233 233 234 236 241 246 248 249 249 251 253 257 261 264
188 188 190 192 194 197 198 198 198 198 197 197 199 199 197 198 199 200 200 201 202 202 203 206 207 208 212 218 222 224 224 225 226 227 229 231 234 237 241 244 247 249 251 252 253 255 255 252 249 248 248 249 249 248 247 247 246 245 243 240 238 237 236 235 233 228 225 224 226 228 230 231 234 235 236 238 243 245 245 246 246 248 251 256 261 264
187 188 190 192 194 196 197 197 197 197 196 197 198 198 197 198 199 201 202 203 204 205 206 208 208 208 212 218 222 224 225 226 227 227 228 231 234 236 239 241 244 246 248 250 252 255 257 255 252 250 250 250 250 250 249 248 248 247 245 242 239 236 234 233 232 228 225 224 225 227 230 233 236 238 238 240 243 244 244 245 246 248 252 256 260 263
188 189 190 191 194 196 197 196 196 196 197 197 197 197 198 198 199 200 202 204 206 207 208 210 210 211 215 219 222 224 225 226 227 228 229 231 233 235 237 240 242 244 247 250 253 256 259 259 257 254 252 252 252 251 250 249 248 247 246 244 241 238 235 232 231 230 228 226 226 227 230 234 238 238 237 239 241 242 243 245 247 250 253 257 261 264
189 189 189 190 192 194 196 196 195 196 197 198 199 198 198 199 199 199 200 202 205 207 209 210 211 213 216 220 223 225 227 228 230 230 230 232 234 235 236 238 241 244 247 250 253 256 259 260 258 255 253 252 252 252 250 249 248 247 246 245 243 240 238 236 233 232 230 228 228 227 228 231 235 235 235 236 238 241 243 245 248 252 256 260 263 265
189 189 189 189 191 192 193 194 195 194 195 198 199 199 199 200 200 200 199 200 202 205 208 210 212 214 218 221 223 226 227 229 231 232 233 233 234 235 237 239 241 244 247 250 252 255 258 260 259 256 253 251 251 251 250 249 248 249 248 247 245 243 242 241 239 237 235 232 231 230 229 230 232 234 234 236 239 242 246 250 254 259 263 265 266 267
189 189 188 189 191 192 193 193 194 195 195 196 198 199 201 201 201 201 201 201 202 204 207 210 213 216 219 222 224 226 228 229 231 233 234 235 236 237 238 240 242 245 247 250 252 255 257 260 260 258 254 252 251 251 249 248 247 248 249 248 247 246 245 245 243 242 240 238 236 234 233 232 233 236 238 241 244 247 252 256 260 263 265 266 267 267
189 188 188 189 190 192 193 193 194 195 195 196 197 199 201 202 203 203 203 204 205 206 208 211 214 218 220 222 224 226 228 231 232 233 234 235 236 237 238 240 242 245 247 250 253 255 257 259 260 259 256 253 251 250 249 247 246 246 248 249 249 248 246 245 244 244 242 241 240 239 239 238 239 240 243 246 248 251 254 257 260 261 263 264 265 266
188 188 188 189 190 191 193 194 194 195 195 196 197 198 200 201 203 204 205 206 208 209 210 212 214 218 220 222 224 226 228 230 233 234 234 235 235 237 238 239 242 244 246 249 252 254 256 258 259 259 258 254 251 250 250 250 249 249 249 250 251 251 249 248 246 246 245 244 244 243 243 243 244 245 247 249 250 252 254 256 258 259 261 262 263 264
188 188 188 188 190 191 192 193 195 195 196 197 197 198 199 200 201 203 205 207 209 211 212 213 215 218 220 222 223 226 228 230 232 234 235 235 235 236 237 239 241 243 245 247 250 253 254 258 262 265 264 260 255 252 252 254 254 253 253 255 257 256 253 251 250 248 247 247 246 246 246 246 247 247 248 250 252 253 255 257 258 259 261 262 264 265
188 188 188 189 190 191 192 193 195 196 197 198 198 198 199 200 202 203 205 206 208 211 213 214 216 219 221 222 223 224 227 229 232 234 235 235 235 236 237 239 240 242 245 247 250 253 256 259 265 268 267 263 259 255 254 255 256 255 255 255 255 255 252 250 250 250 250 249 249 249 250 250 250 250 251 252 253 255 256 258 259 261 262 264 265 267
188 188 189 189 190 191 192 193 195 196 197 198 199 200 200 201 202 204 205 206 208 210 212 214 216 219 221 222 223 224 226 229 231 233 234 234 235 236 237 239 241 243 245 248 251 254 257 260 264 266 265 263 261 258 256 255 255 254 252 246 244 247 249 250 251 252 253 253 253 254 255 255 255 255 255 255 255 256 257 259 260 262 264 265 267 268
188 188 189 190 191 192 193 194 194 195 197 198 200 202 202 203 204 205 205 206 207 209 212 214 216 218 221 223 224 224 226 228 230 232 233 233 234 236 238 240 243 245 247 250 253 256 258 259 261 263 264 263 261 258 256 256 255 255 254 250 247 247 249 252 254 254 254 254 255 257 259 259 259 258 257 257 257 257 258 260 261 263 264 266 267 269
188 188 189 190 191 192 193 194 194 195 197 199 201 202 204 205 206 207 208 208 209 210 212 214 216 218 221 223 224 225 226 228 230 231 232 233 234 236 239 242 244 246 249 252 255 257 257 257 258 261 263 263 261 258 256 255 255 254 254 254 253 253 253 253 254 255 256 257 259 261 263 264 263 261 260 259 259 259 260 261 262 263 264 266 269 271
188 189 189 190 192 193 194 195 195 196 198 200 201 203 204 206 208 209 210 211 211 212 213 215 216 218 220 222 224 225 226 228 230 231 233 234 236 238 241 243 245 247 249 251 253 254 254 255 256 259 262 263 263 263 262 260 258 257 257 257 259 261 261 262 263 264 265 266 267 269 270 269 267 264 262 261 260 260 261 262 263 264 267 269 272 274
188 189 190 190 192 193 194 196 197 198 198 200 202 203 204 206 208 210 211 212 213 214 216 217 218 219 220 222 224 226 227 229 231 232 234 236 238 240 242 243 245 247 248 250 252 253 254 255 256 258 261 264 267 269 269 268 266 265 264 264 266 268 269 269 270 270 270 270 270 270 268 266 264 263 263 263 262 261 262 264 265 267 270 273 274 274
187 189 190 191 192 194 195 197 198 199 200 201 202 204 205 207 209 211 212 213 214 215 217 219 220 221 221 223 225 227 229 231 233 235 236 237 239 241 243 245 246 248 249 250 252 253 254 255 256 257 260 264 268 270 270 269 268 268 267 268 269 270 270 270 269 270 272 272 267 264 262 261 261 263 264 263 262 262 264 266 267 269 273 275 276 274
186 188 190 191 193 194 195 197 199 200 201 202 203 204 206 208 209 211 212 214 215 216 217 219 221 222 223 224 225 227 229 231 233 235 237 239 240 242 245 247 248 249 249 249 250 252 253 255 257 259 261 263 266 268 267 266 267 267 267 267 265 262 261 264 266 270 270 265 261 261 261 261 263 266 265 263 262 264 266 267 267 268 271 272 272 271
186 188 190 192 193 194 195 198 199 200 202 203 204 205 207 209 210 211 212 214 215 217 218 220 221 223 224 225 226 228 229 231 233 235 237 240 242 244 246 248 250 250 249 249 250 252 255 257 259 260 261 262 263 265 267 269 270 270 270 268 264 260 258 258 261 264 260 255 255 257 257 256 258 261 263 263 263 264 265 266 266 264 264 265 267 269
187 188 191 192 193 194 196 198 200 201 202 203 204 206 207 209 210 212 213 214 215 216 218 220 221 223 224 226 227 228 230 232 234 236 238 241 243 244 247 249 250 251 251 252 253 254 256 258 259 260 261 262 263 264 266 269 271 272 273 271 269 267 264 261 260 260 256 254 256 257 255 254 255 256 258 259 260 262 264 266 267 265 262 263 266 269
187 189 191 193 194 195 197 198 199 202 203 204 205 206 208 209 210 212 213 214 215 216 218 220 221 223 224 226 227 229 230 232 234 236 239 241 243 244 246 248 250 252 253 254 254 255 256 257 258 259 260 261 262 263 264 266 269 272 273 272 272 271 269 266 263 261 259 260 262 262 261 260 258 257 257 257 257 259 261 263 265 266 267 266 267 269
188 189 191 193 195 196 198 199 200 202 204 206 207 207 208 210 211 213 213 214 216 217 219 220 222 223 225 226 228 230 231 233 234 236 238 240 242 244 245 247 249 251 252 253 254 255 256 257 258 259 260 261 262 262 262 263 266 269 271 273 273 271 266 263 262 262 262 263 265 266 266 265 262 260 259 259 259 259 260 261 262 264 267 267 267 270
188 190 191 193 195 196 197 199 201 202 204 206 208 209 210 211 213 214 214 215 216 218 219 221 223 224 226 228 229 231 233 235 236 237 238 240 241 243 244 246 248 250 251 253 254 255 257 258 259 259 260 261 261 262 262 263 264 265 266 267 266 263 259 257 260 262 263 263 263 264 265 265 265 263 261 261 261 260 260 261 262 263 265 266 268 271
188 190 192 193 195 197 198 200 201 203 204 206 208 210 212 213 214 216 216 217 218 219 220 222 223 225 226 228 230 232 234 236 237 239 239 240 242 243 244 246 248 249 251 252 253 254 256 257 258 259 259 260 261 262 262 263 263 263 262 261 260 260 260 260 260 261 261 261 261 261 261 262 263 263 263 262 262 263 263 264 263 264 265 268 270 272
189 190 192 194 195 197 199 201 202 203 205 206 208 210 212 214 216 217 218 219 220 220 222 223 224 226 227 229 231 232 234 236 238 239 241 242 243 245 246 248 249 250 252 252 253 254 255 256 257 258 259 260 261 261 261 262 262 262 262 261 261 262 262 261 260 260 260 261 262 262 261 260 260 260 260 261 262 263 265 265 265 266 267 269 271 272
190 191 192 194 196 197 199 201 202 204 205 207 209 210 212 214 216 217 219 220 221 222 223 224 225 227 228 230 231 233 234 236 237 239 242 243 245 246 247 248 250 251 252 253 253 254 255 256 257 258 259 259 259 260 260 260 261 261 262 263 263 263 264 264 263 263 263 263 263 262 261 260 260 260 260 260 261 262 263 264 265 266 267 268 269 271
191 193 194 195 197 198 200 201 202 204 205 207 209 210 212 214 215 217 218 220 222 223 224 225 226 227 229 230 231 233 234 236 237 239 241 244 246 247 248 249 249 250 251 251 253 254 255 256 257 258 259 259 259 259 259 260 260 261 262 263 263 263 265 266 267 267 267 267 267 265 263 263 263 263 263 263 263 263 263 264 264 265 266 267 269 272
193 194 196 197 199 200 201 202 203 204 206 207 208 210 212 213 215 216 218 220 221 223 224 225 226 227 229 231 232 233 235 236 238 240 242 244 246 247 248 248 248 249 250 251 252 254 255 256 257 258 259 260 260 260 260 260 261 261 262 263 263 263 265 267 269 269 271 271 271 270 270 269 268 267 266 267 266 266 265 265 265 265 266 268 269 271
199 198 198 199 201 202 202 203 204 206 207 208 209 210 212 214 215 216 217 219 220 222 223 225 226 228 229 231 233 234 236 237 239 241 242 243 245 246 247 248 249 250 251 252 253 254 255 256 257 258 259 260 261 261 262 262 263 263 263 264 264 264 266 268 270 271 273 274 275 274 274 273 272 271 270 270 270 270 270 269 268 268 268 269 270 271
Height
10516 10525 10537 10553 10568 10576 10583 10588 10591 10598 10605 10613 10619 10623 10630 10635 10637 10641 10643 10642 10647 10653 10659 10664 10667 10670 10673 10677 10682 10686 10689 10691 10695 10699 10704 10707 10709 10711 10713 10715 10718 10721 10725 10727 10729 10732 10736 10740 10741 10742 10745 10748 10751 10754 10756 10758 10760 10762 10763 10765 10767 10770 10771 10771 10772 10774 10775 10773 10774 10774 10775 10775 10775 10776 10777 10778 10779 10780 10780 10781 10781 10781 10781 10781 10781 10782
10501 10517 10535 10550 10557 10562 10571 10575 10579 10592 10601 10607 10613 10617 10623 10628 10629 10634 10637 10638 10643 10650 10655 10659 10663 10667 10670 10674 10679 10683 10686 10689 10692 10696 10699 10702 10703 10706 10708 10710 10713 10718 10721 10723 10725 10728 10733 10735 10736 10738 10741 10744 10747 10750 10751 10753 10755 10757 10759 10761 10764 10766 10767 10768 10769 10770 10768 10767 10768 10769 10770 10770 10771 10772 10773 10775 10775 10776 10776 10776 10776 10776 10776 10776 10776 10777
10493 10517 10532 10538 10543 10552 10561 10565 10573 10587 10593 10599 10605 10608 10615 10621 10624 10628 10632 10636 10641 10647 10652 10655 10661 10664 10666 10672 10676 10680 10684 10685 10688 10691 10694 10697 10700 10703 10705 10707 10711 10716 10718 10719 10721 10725 10729 10731 10731 10734 10737 10740 10743 10745 10747 10748 10750 10752 10755 10758 10761 10763 10763 10764 10764 10763 10761 10761 10762 10764 10765 10766 10767 10768 10769 10770 10770 10771 10771 10772 10772 10771 10771 10770 10770 10771
10495 10515 10520 10523 10533 10544 10553 10560 10569 10579 10584 10591 10597 10602 10610 10616 10619 10623 10627 10632 10637 10642 10647 10652 10658 10660 10663 10670 10675 10678 10681 10681 10685 10688 10691 10695 10698 10700 10702 10705 10709 10712 10714 10715 10717 10721 10724 10725 10726 10729 10733 10736 10738 10740 10742 10743 10745 10748 10752 10755 10758 10759 10759 10758 10756 10755 10755 10755 10756 10758 10760 10761 10763 10765 10766 10766 10766 10766 10767 10768 10767 10767 10765 10763 10764 10765
10489 10499 10502 10512 10526 10536 10545 10552 10560 10570 10578 10585 10590 10597 10605 10611 10614 10616 10620 10626 10630 10636 10643 10649 10653 10656 10661 10668 10672 10675 10677 10679 10682 10685 10689 10692 10694 10696 10699 10702 10705 10706 10708 10710 10713 10716 10717 10719 10721 10725 10728 10731 10734 10736 10737 10739 10742 10746 10749 10753 10755 10756 10754 10750 10749 10749 10750 10749 10750 10753 10756 10757 10760 10761 10762 10762 10761 10762 10763 10764 10764 10763 10762 10759 10759 10760
10468 10475 10485 10503 10518 10528 10536 10544 10555 10566 10573 10579 10586 10593 10600 10606 10607 10608 10615 10621 10625 10633 10641 10644 10648 10654 10659 10664 10669 10672 10675 10677 10679 10682 10685 10687 10690 10693 10696 10698 10699 10701 10703 10705 10708 10710 10711 10714 10717 10721 10724 10727 10729 10731 10733 10736 10740 10744 10748 10750 10751 10751 10746 10742 10743 10745 10745 10746 10747 10750 10753 10754 10756 10757 10757 10757 10757 10758 10759 10760 10760 10760 10759 10756 10755 10756
10450 10461 10479 10499 10510 10518 10527 10538 10548 10559 10566 10574 10581 10587 10595 10600 10599 10603 10611 10617 10623 10631 10636 10640 10646 10651 10655 10661 10666 10669 10672 10674 10675 10678 10681 10684 10687 10690 10691 10692 10694 10697 10698 10700 10703 10704 10706 10710 10713 10717 10720 10722 10724 10727 10730 10734 10738 10743 10748 10749 10748 10746 10739 10736 10738 10741 10742 10744 10746 10747 10749 10751 10753 10753 10753 10753 10754 10754 10754 10753 10754 10756 10756 10753 10752 10752
10437 10456 10478 10492 10499 10507 10519 10531 10542 10553 10561 10568 10575 10582 10590 10592 10591 10598 10606 10612 10619 10624 10629 10637 10642 10646 10652 10658 10662 10665 10668 10670 10673 10676 10678 10681 10684 10685 10686 10688 10691 10693 10694 10696 10698 10700 10703 10707 10710 10713 10715 10717 10720 10722 10726 10731 10737 10745 10749 10747 10744 10739 10733 10733 10736 10739 10741 10743 10744 10745 10745 10747 10748 10749 10749 10749 10750 10750 10748 10746 10748 10753 10751 10748 10748 10747
10436 10459 10475 10483 10491 10503 10516 10525 10535 10546 10553 10561 10569 10577 10582 10582 10585 10593 10600 10607 10613 10618 10627 10634 10638 10644 10650 10654 10658 10662 10665 10668 10671 10673 10675 10677 10679 10680 10682 10685 10687 10689 10690 10692 10694 10697 10700 10703 10706 10709 10711 10713 10715 10718 10722 10728 10736 10742 10741 10738 10737 10733 10730 10733 10735 10737 10739 10740 10742 10743 10742 10743 10745 10745 10745 10745 10746 10746 10745 10742 10744 10748 10746 10743 10743 10744
10434 10454 10463 10472 10485 10498 10509 10518 10529 10539 10546 10557 10565 10569 10572 10574 10579 10588 10595 10601 10608 10616 10625 10630 10637 10643 10647 10651 10656 10660 10665 10668 10669 10669 10670 10672 10674 10676 10679 10681 10684 10685 10686 10688 10690 10693 10696 10699 10702 10704 10706 10708 10710 10713 10718 10725 10731 10732 10729 10732 10735 10730 10728 10731 10732 10734 10736 10736 10738 10739 10739 10740 10741 10741 10741 10741 10742 10744 10743 10740 10740 10742 10742 10740 10740 10740
10423 10438 10447 10461 10476 10488 10499 10511 10523 10532 10540 10551 10557 10559 10564 10567 10573 10583 10590 10596 10606 10616 10623 10629 10635 10639 10642 10648 10653 10658 10662 10663 10663 10664 10665 10668 10670 10673 10676 10678 10680 10680 10682 10684 10687 10689 10692 10695 10697 10699 10701 10703 10705 10709 10714 10721 10723 10721 10723 10731 10734 10726 10724 10727 10728 10729 10732 10732 10734 10735 10736 10737 10737 10737 10737 10737 10739 10741 10740 10738 10737 10738 10737 10737 10737 10737
10413 10423 10436 10454 10468 10479 10493 10506 10516 10525 10535 10545 10548 10551 10556 10561 10569 10578 10585 10595 10607 10616 10621 10626 10631 10635 10640 10645 10649 10654 10656 10656 10658 10659 10661 10664 10667 10669 10671 10674 10675 10676 10679 10681 10683 10685 10688 10690 10692 10694 10696 10698 10701 10705 10710 10715 10716 10716 10722 10729 10730 10722 10719 10722 10723 10725 10727 10728 10730 10731 10732 10733 10733 10733 10733 10733 10735 10737 10736 10734 10734 10735 10734 10734 10733 10733
10405 10416 10434 10450 10462 10476 10490 10500 10508 10518 10528 10537 10541 10546 10553 10559 10567 10577 10587 10599 10609 10613 10618 10624 10628 10633 10639 10642 10646 10650 10651 10652 10655 10655 10658 10661 10663 10666 10668 10670 10672 10673 10676 10678 10679 10681 10683 10686 10688 10690 10692 10694 10697 10701 10705 10710 10710 10714 10720 10724 10724 10718 10713 10715 10719 10721 10723 10724 10726 10729 10730 10729 10727 10726 10727 10730 10731 10732 10731 10730 10731 10731 10731 10730 10730 10731
10398 10412 10429 10443 10457 10473 10485 10494 10506 10518 10529 10537 10544 10549 10554 10561 10570 10581 10592 10600 10605 10610 10616 10621 10625 10631 10635 10637 10642 10646 10646 10649 10650 10651 10655 10658 10661 10664 10666 10667 10669 10670 10673 10674 10675 10677 10679 10681 10683 10686 10688 10690 10693 10697 10701 10704 10706 10711 10717 10717 10716 10712 10706 10709 10716 10718 10718 10719 10722 10726 10727 10724 10721 10721 10723 10726 10727 10726 10726 10726 10727 10727 10726 10726 10727 10728
10396 10411 10427 10443 10458 10471 10480 10492 10505 10517 10527 10535 10540 10543 10550 10560 10571 10581 10589 10595 10601 10608 10614 10617 10623 10629 10632 10635 10639 10641 10642 10644 10646 10649 10654 10657 10659 10662 10663 10664 10666 10667 10668 10669 10670 10672 10674 10677 10679 10682 10684 10686 10690 10693 10696 10699 10702 10708 10713 10712 10711 10708 10702 10705 10711 10713 10714 10716 10718 10721 10720 10718 10718 10718 10720 10722 10722 10722 10722 10722 10723 10723 10722 10722 10723 10724
10395 10411 10428 10443 10455 10465 10476 10487 10496 10505 10516 10524 10529 10536 10546 10557 10566 10574 10582 10590 10597 10605 10610 10615 10622 10627 10630 10633 10636 10636 10638 10641 10645 10648 10652 10654 10657 10658 10660 10661 10661 10662 10663 10664 10666 10667 10670 10673 10675 10678 10680 10683 10686 10688 10691 10694 10697 10704 10710 10709 10706 10704 10700 10701 10706 10708 10710 10712 10714 10715 10714 10714 10715 10716 10717 10718 10718 10718 10718 10718 10719 10719 10719 10719 10719 10719
10392 10405 10418 10433 10447 10459 10469 10479 10490 10502 10512 10519 10528 10537 10546 10554 10563 10572 10580 10587 10595 10602 10606 10612 10619 10623 10626 10628 10630 10632 10636 10639 10642 10645 10648 10650 10652 10654 10656 10656 10657 10658 10659 10660 10662 10664 10667 10669 10672 10674 10677 10679 10682 10684 10686 10689 10692 10699 10706 10704 10701 10699 10698 10698 10701 10703 10706 10707 10708 10709 10710 10710 10711 10713 10714 10714 10713 10714 10715 10715 10715 10715 10716 10716 10716 10715
10387 10402 10417 10432 10445 10455 10465 10475 10487 10497 10507 10516 10526 10532 10541 10552 10563 10571 10578 10585 10592 10597 10602 10609 10615 10618 10620 10622 10625 10629 10632 10635 10639 10642 10644 10646 10648 10650 10651 10652 10653 10654 10655 10657 10659 10661 10664 10666 10668 10670 10673 10675 10678 10680 10682 10684 10687 10692 10696 10696 10696 10696 10694 10693 10695 10697 10699 10701 10702 10703 10705 10706 10708 10710 10711 10710 10709 10710 10711 10711 10711 10711 10712 10712 10712 10712
10381 10398 10414 10426 10436 10447 10458 10470 10481 10490 10502 10513 10518 10525 10538 10551 10560 10566 10575 10584 10589 10594 10600 10607 10611 10614 10617 10619 10622 10625 10628 10632 10635 10638 10640 10643 10644 10646 10647 10647 10649 10651 10653 10655 10656 10658 10660 10662 10664 10667 10669 10672 10674 10676 10677 10679 10681 10685 10686 10688 10691 10691 10688 10687 10690 10692 10694 10696 10697 10698 10701 10703 10704 10706 10707 10706 10706 10706 10707 10707 10708 10708 10708 10708 10708 10708
10381 10395 10407 10418 10429 10439 10451 10465 10478 10490 10501 10509 10516 10526 10538 10546 10552 10562 10572 10579 10584 10591 10597 10603 10607 10611 10615 10616 10618 10621 10625 10628 10631 10634 10636 10638 10639 10641 10642 10643 10646 10648 10650 10652 10653 10655 10657 10659 10661 10664 10666 10668 10670 10671 10673 10674 10676 10678 10680 10684 10686 10685 10684 10685 10687 10688 10690 10691 10692 10693 10696 10699 10700 10702 10703 10703 10703 10703 10703 10704 10704 10704 10704 10704 10704 10704
10379 10391 10403 10415 10425 10437 10451 10465 10478 10490 10498 10506 10517 10529 10537 10544 10553 10562 10569 10575 10581 10588 10594 10599 10605 10609 10612 10612 10613 10617 10621 10624 10628 10630 10631 10633 10636 10637 10639 10641 10643 10646 10648 10649 10651 10652 10654 10656 10658 10660 10662 10664 10665 10667 10668 10669 10671 10673 10676 10679 10680 10679 10680 10682 10684 10685 10687 10688 10688 10690 10692 10694 10696 10697 10698 10699 10699 10699 10700 10700 10700 10700 10700 10700 10700 10700
10376 10387 10400 10414 10428 10442 10453 10462 10471 10483 10494 10506 10516 10524 10534 10545 10553 10561 10568 10574 10579 10585 10591 10596 10601 10605 10607 10606 10607 10612 10617 10621 10624 10626 10628 10631 10633 10634 10636 10639 10641 10644 10645 10647 10648 10649 10651 10652 10654 10656 10658 10659 10661 10662 10663 10665 10667 10669 10672 10675 10675 10675 10676 10678 10680 10682 10683 10684 10685 10687 10689 10690 10692 10693 10694 10695 10696 10696 10696 10696 10695 10696 10696 10696 10696 10696
10377 10389 10403 10417 10430 10439 10445 10454 10467 10479 10491 10502 10510 10519 10530 10541 10550 10557 10564 10570 10576 10583 10589 10594 10598 10602 10603 10600 10603 10610 10615 10618 10620 10622 10625 10628 10629 10631 10634 10636 10639 10641 10642 10643 10645 10646 10647 10648 10650 10652 10654 10655 10657 10658 10659 10660 10662 10665 10668 10670 10671 10671 10672 10674 10676 10677 10679 10680 10681 10683 10685 10686 10688 10689 10690 10691 10692 10692 10691 10691 10691 10691 10692 10692 10692 10691
10376 10388 10399 10409 10418 10426 10437 10451 10463 10474 10486 10496 10506 10519 10531 10541 10548 10554 10560 10567 10574 10580 10585 10589 10594 10598 10597 10596 10601 10608 10612 10614 10617 10619 10622 10624 10625 10628 10631 10634 10636 10638 10639 10640 10641 10643 10644 10645 10646 10648 10650 10651 10653 10655 10655 10656 10658 10660 10663 10665 10667 10668 10669 10670 10671 10673 10674 10676 10678 10680 10681 10683 10684 10685 10687 10687 10687 10687 10686 10686 10686 10687 10687 10687 10686 10686
10371 10380 10390 10400 10409 10418 10431 10445 10460 10475 10489 10500 10511 10523 10532 10538 10545 10553 10561 10568 10572 10576 10581 10586 10590 10593 10591 10591 10597 10604 10608 10611 10613 10616 10618 10620 10622 10626 10629 10631 10633 10634 10635 10637 10638 10640 10641 10642 10643 10645 10646 10648 10650 10651 10652 10652 10654 10656 10658 10661 10662 10664 10665 10666 10667 10669 10670 10672 10674 10676 10677 10679 10681 10682 10683 10683 10683 10682 10681 10682 10682 10682 10682 10681 10681 10681
10366 10375 10387 10401 10415 10430 10445 10461 10477 10490 10498 10505 10513 10521 10528 10535 10544 10552 10559 10565 10569 10575 10580 10583 10586 10588 10586 10588 10594 10601 10604 10607 10609 10612 10614 10616 10619 10623 10626 10628 10630 10631 10632 10634 10636 10637 10638 10639 10641 10642 10643 10645 10647 10648 10648 10649 10650 10651 10653 10656 10658 10660 10661 10662 10663 10665 10666 10668 10670 10671 10673 10675 10676 10677 10678 10678 10678 10677 10676 10676 10677 10677 10677 10677 10677 10676
10372 10381 10394 10409 10427 10445 10462 10475 10483 10491 10499 10506 10513 10520 10527 10535 10540 10546 10553 10559 10566 10571 10574 10577 10581 10582 10581 10585 10592 10598 10602 10604 10606 10608 10610 10613 10617 10620 10622 10624 10626 10628 10630 10632 10633 10635 10636 10637 10638 10639 10641 10643 10644 10645 10646 10646 10646 10647 10649 10651 10653 10655 10656 10658 10659 10660 10662 10664 10665 10667 10668 10670 10671 10672 10673 10673 10673 10672 10671 10671 10671 10672 10672 10672 10672 10672
10377 10389 10403 10417 10428 10439 10449 10460 10471 10480 10490 10500 10509 10517 10524 10530 10535 10543 10550 10556 10561 10566 10569 10573 10575 10576 10577 10583 10590 10595 10599 10601 10603 10605 10607 10610 10614 10616 10618 10621 10623 10625 10628 10629 10630 10632 10633 10634 10635 10636 10637 10639 10641 10642 10643 10643 10643 10643 10645 10646 10649 10650 10652 10654 10655 10656 10658 10659 10661 10662 10664 10665 10666 10667 10668 10668 10668 10667 10667 10666 10666 10667 10667 10667 10667 10666
10378 10391 10404 10416 10426 10435 10446 10458 10469 10478 10486 10494 10504 10513 10520 10526 10534 10542 10548 10552 10556 10561 10565 10569 10571 10572 10576 10582 10587 10591 10595 10597 10599 10602 10604 10607 10611 10613 10615 10618 10620 10623 10625 10626 10627 10628 10629 10631 10632 10633 10634 10636 10637 10638 10639 10640 10640 10640 10641 10642 10644 10646 10648 10649 10651 10652 10654 10655 10656 10658 10659 10660 10662 10662 10663 10663 10663 10663 10662 10661 10661 10661 10661 10661 10661 10661
10381 10393 10405 10416 10427 10440 10451 10459 10466 10475 10485 10493 10501 10509 10517 10525 10532 10539 10544 10549 10554 10558 10562 10565 10568 10570 10574 10579 10583 10588 10592 10594 10596 10598 10601 10604 10607 10609 10611 10615 10617 10619 10621 10623 10624 10625 10626 10628 10629 10629 10631 10632 10633 10635 10636 10637 10637 10638 10638 10639 10640 10642 10644 10645 10647 10648 10649 10650 10652 10653 10654 10656 10656 10657 10658 10658 10658 10658 10657 10657 10656 10656 10656 10655 10655 10655
10383 10394 10406 10417 10428 10437 10447 10456 10465 10474 10481 10488 10495 10503 10512 10520 10528 10535 10541 10546 10551 10554 10557 10561 10564 10566 10570 10575 10580 10584 10588 10590 10592 10594 10597 10600 10602 10605 10608 10611 10613 10616 10618 10620 10621 10622 10623 10624 10626 10626 10627 10628 10630 10631 10632 10633 10635 10636 10636 10637 10638 10639 10640 10641 10642 10643 10645 10646 10647 10648 10649 10650 10651 10652 10653 10653 10653 10653 10652 10651 10651 10651 10650 10650 10650 10649
10384 10394 10405 10416 10425 10434 10443 10454 10464 10471 10477 10483 10491 10499 10508 10516 10524 10531 10537 10542 10547 10550 10553 10557 10560 10563 10567 10572 10577 10581 10584 10586 10587 10589 10592 10595 10598 10601 10604 10607 10609 10612 10614 10617 10618 10619 10620 10622 10623 10624 10624 10625 10626 10627 10628 10630 10631 10633 10634 10635 10635 10636 10637 10637 10638 10639 10640 10641 10642 10643 10644 10645 10646 10647 10647 10648 10648 10647 10647 10646 10646 10645 10645 10644 10644 10644
10385 10394 10403 10413 10423 10433 10443 10452 10460 10468 10475 10484 10493 10500 10508 10514 10520 10526 10532 10537 10542 10546 10550 10554 10557 10560 10564 10569 10573 10576 10579 10581 10582 10584 10587 10591 10594 10597 10600 10603 10605 10608 10611 10613 10615 10616 10618 10619 10620 10620 10621 10621 10621 10623 10624 10626 10627 10629 10631 10632 10631 10631 10632 10633 10634 10635 10636 10637 10638 10638 10639 10640 10641 10642 10643 10643 10643 10642 10641 10641 10640 10640 10639 10639 10638 10638
10385 10394 10403 10412 10422 10432 10441 10449 10457 10467 10478 10488 10496 10500 10505 10510 10516 10522 10527 10532 10537 10541 10545 10549 10553 10557 10561 10565 10569 10572 10574 10576 10577 10579 10582 10586 10590 10593 10596 10598 10601 10605 10608 10610 10612 10613 10615 10616 10617 10617 10616 10616 10617 10618 10620 10621 10623 10624 10626 10627 10627 10627 10628 10629 10630 10631 10631 10632 10633 10634 10635 10636 10637 10638 10638 10638 10638 10637 10636 10635 10635 10634 10634 10633 10633 10632
10386 10395 10404 10413 10422 10431 10439 10448 10459 10471 10480 10487 10492 10497 10502 10507 10511 10516 10521 10526 10531 10536 10540 10545 10550 10553 10557 10560 10564 10567 10569 10570 10572 10575 10578 10582 10586 10590 10592 10595 10598 10602 10605 10607 10609 10610 10611 10612 10613 10613 10612 10612 10613 10614 10615 10617 10618 10619 10621 10622 10623 10623 10624 10625 10626 10627 10627 10628 10629 10630 10631 10632 10633 10633 10633 10632 10632 10631 10630 10630 10629 10629 10628 10628 10627 10627
10387 10395 10404 10413 10422 10432 10442 10453 10463 10471 10477 10481 10486 10493 10499 10504 10510 10515 10520 10525 10531 10535 10538 10542 10547 10550 10553 10555 10558 10561 10564 10566 10568 10570 10574 10578 10583 10586 10590 10592 10595 10599 10602 10604 10606 10607 10608 10609 10609 10609 10609 10609 10609 10610 10611 10612 10614 10615 10616 10617 10618 10619 10619 10620 10621 10622 10623 10624 10625 10626 10627 10627 10628 10628 10627 10627 10626 10626 10625 10625 10624 10623 10623 10623 10622 10622
10389 10397 10405 10415 10425 10435 10445 10454 10460 10466 10471 10477 10484 10491 10497 10504 10510 10515 10520 10525 10530 10533 10535 10538 10543 10546 10548 10550 10553 10556 10559 10561 10563 10566 10570 10575 10580 10584 10587 10590 10593 10596 10598 10600 10602 10603 10604 10605 10605 10606 10606 10606 10606 10607 10608 10609 10610 10611 10612 10613 10614 10614 10615 10616 10617 10618 10620 10620 10621 10622 10622 10623 10623 10623 10622 10622 10622 10621 10620 10619 10619 10618 10618 10618 10618 10618
10391 10400 10408 10417 10426 10435 10443 10450 10456 10462 10468 10476 10483 10490 10497 10502 10507 10511 10516 10521 10526 10529 10532 10535 10539 10542 10544 10546 10549 10551 10554 10557 10560 10563 10568 10573 10578 10581 10584 10587 10590 10592 10594 10596 10598 10599 10600 10601 10602 10602 10603 10603 10604 10604 10605 10605 10606 10607 10608 10609 10610 10611 10612 10613 10614 10615 10616 10617 10617 10617 10618 10618 10618 10618 10618 10618 10617 10616 10615 10614 10614 10614 10614 10614 10613 10613
10392 10400 10408 10415 10423 10431 10439 10447 10454 10462 10469 10475 10482 10488 10493 10497 10502 10506 10511 10517 10522 10526 10529 10531 10534 10538 10541 10543 10545 10547 10551 10554 10557 10561 10566 10571 10575 10578 10581 10584 10587 10589 10591 10593 10594 10595 10596 10597 10598 10599 10600 10601 10601 10602 10602 10602 10603 10604 10605 10606 10607 10608 10609 10609 10611 10612 10612 10612 10611 10612 10612 10613 10614 10614 10614 10613 10612 10611 10610 10610 10610 10610 10610 10610 10609 10609
10391 10399 10407 10414 10421 10429 10438 10446 10454 10460 10467 10473 10478 10484 10489 10494 10498 10503 10509 10515 10520 10523 10526 10528 10530 10533 10537 10541 10542 10545 10548 10551 10553 10557 10562 10567 10572 10575 10577 10580 10583 10585 10587 10589 10590 10591 10592 10593 10594 10596 10597 10598 10599 10599 10599 10599 10600 10600 10601 10602 10603 10604 10605 10606 10607 10609 10610 10608 10606 10607 10608 10609 10610 10610 10609 10609 10607 10606 10606 10607 10607 10607 10607 10606 10605 10604
10392 10399 10406 10413 10420 10429 10437 10444 10449 10455 10462 10468 10474 10479 10484 10488 10494 10500 10507 10512 10515 10518 10521 10523 10525 10529 10534 10537 10539 10542 10545 10547 10549 10553 10558 10563 10568 10570 10573 10576 10578 10580 10582 10583 10585 10587 10588 10589 10591 10592 10594 10595 10595 10595 10596 10596 10597 10597 10597 10598 10599 10600 10601 10602 10603 10606 10607 10604 10601 10603 10605 10605 10605 10606 10605 10605 10604 10602 10602 10603 10603 10604 10603 10601 10599 10599
10394 10400 10406 10413 10420 10427 10432 10438 10444 10451 10457 10463 10469 10474 10479 10485 10492 10498 10502 10505 10509 10513 10517 10519 10522 10526 10530 10533 10535 10539 10542 10544 10546 10550 10555 10559 10563 10566 10569 10571 10573 10574 10576 10578 10580 10583 10585 10586 10587 10588 10590 10591 10592 10593 10593 10593 10593 10594 10594 10594 10595 10595 10597 10598 10599 10601 10602 10599 10597 10599 10600 10600 10600 10600 10600 10600 10599 10597 10597 10598 10599 10600 10599 10596 10594 10594
10395 10401 10407 10413 10420 10425 10430 10436 10443 10450 10455 10460 10465 10470 10477 10483 10488 10491 10494 10499 10504 10508 10511 10515 10518 10522 10526 10528 10532 10535 10538 10540 10543 10547 10551 10555 10559 10562 10565 10566 10568 10569 10571 10573 10575 10578 10579 10581 10583 10584 10586 10587 10588 10589 10590 10590 10590 10590 10590 10590 10591 10591 10592 10592 10592 10594 10595 10594 10593 10594 10595 10595 10595 10595 10595 10595 10594 10593 10592 10593 10594 10594 10594 10592 10590 10589
10396 10401 10407 10413 10420 10426 10432 10438 10443 10448 10453 10458 10463 10469 10475 10478 10480 10484 10489 10495 10500 10504 10508 10511 10515 10519 10522 10525 10528 10530 10533 10536 10540 10544 10548 10552 10555 10558 10561 10562 10563 10564 10566 10568 10570 10572 10574 10576 10577 10579 10581 10582 10584 10585 10586 10587 10587 10587 10587 10587 10587 10587 10586 10585 10586 10587 10588 10589 10589 10589 10589 10589 10589 10589 10589 10589 10588 10587 10586 10587 10588 10589 10588 10587 10585 10584
10396 10401 10407 10413 10419 10425 10430 10435 10440 10445 10450 10456 10461 10466 10470 10473 10476 10481 10487 10491 10496 10500 10504 10507 10512 10516 10518 10521 10524 10526 10529 10532 10537 10541 10545 10548 10551 10554 10556 10558 10559 10560 10562 10563 10565 10567 10568 10570 10572 10574 10576 10577 10578 10579 10580 10581 10582 10583 10583 10583 10582 10581 10581 10580 10581 10583 10584 10584 10585 10585 10585 10584 10584 10584 10583 10582 10582 10581 10580 10581 10583 10583 10582 10581 10580 10579
10395 10401 10406 10411 10417 10422 10427 10432 10437 10442 10448 10453 10458 10463 10466 10469 10474 10479 10484 10488 10493 10497 10500 10504 10508 10512 10514 10517 10520 10523 10526 10529 10533 10536 10540 10543 10546 10549 10551 10553 10554 10556 10557 10559 10561 10562 10563 10565 10566 10569 10570 10572 10573 10574 10575 10576 10577 10577 10578 10579 10578 10576 10577 10577 10577 10578 10579 10579 10579 10579 10579 10579 10578 10578 10577 10576 10576 10575 10575 10575 10576 10576 10575 10575 10574 10573
10393 10399 10404 10410 10415 10421 10426 10430 10435 10440 10445 10450 10454 10458 10462 10467 10471 10476 10481 10486 10489 10493 10497 10501 10504 10508 10511 10514 10517 10519 10523 10526 10529 10532 10534 10537 10540 10544 10546 10548 10549 10551 10553 10554 10556 10557 10558 10559 10561 10563 10565 10566 10567 10568 10569 10570 10570 10571 10572 10573 10573 10572 10572 10572 10572 10573 10574 10574 10574 10573 10573 10572 10572 10571 10571 10570 10569 10569 10569 10569 10569 10570 10569 10568 10567 10566
10391 10396 10402 10407 10412 10417 10421 10426 10432 10437 10442 10446 10451 10455 10459 10463 10468 10473 10477 10481 10485 10489 10494 10497 10501 10504 10507 10510 10513 10517 10519 10522 10525 10527 10529 10532 10535 10538 10541 10543 10544 10546 10547 10548 10549 10551 10553 10554 10556 10558 10559 10560 10561 10563 10564 10564 10565 10565 10566 10568 10568 10567 10566 10566 10567 10568 10568 10568 10568 10567 10566 10566 10565 10565 10564 10564 10564 10563 10563 10562 10563 10563 10562 10561 10560 10559
10389 10394 10399 10404 10408 10412 10417 10422 10427 10432 10437 10441 10446 10450 10455 10459 10463 10468 10472 10477 10481 10486 10490 10494 10497 10501 10503 10506 10510 10512 10515 10517 10520 10522 10525 10527 10530 10532 10535 10537 10538 10540 10541 10542 10544 10545 10547 10549 10551 10552 10553 10554 10555 10556 10557 10558 10559 10560 10561 10562 10562 10561 10560 10560 10561 10562 10562 10561 10561 10561 10560 10560 10559 10558 10558 10558 10557 10557 10556 10555 10555 10555 10555 10554 10553 10552
10388 10392 10396 10400 10404 10409 10414 10418 10423 10427 10431 10436 10440 10445 10449 10453 10458 10463 10468 10473 10478 10482 10486 10490 10493 10496 10499 10502 10505 10508 10510 10513 10515 10518 10520 10523 10524 10526 10528 10529 10531 10533 10534 10536 10538 10540 10542 10543 10545 10546 10547 10548 10549 10550 10550 10551 10552 10553 10554 10555 10556 10555 10555 10555 10555 10555 10555 10555 10555 10555 10554 10554 10553 10552 10552 10551 10550 10549 10549 10549 10548 10548 10548 10547 10546 10545
10388 10391 10394 10397 10402 10406 10410 10414 10418 10422 10426 10430 10435 10440 10444 10448 10453 10459 10464 10469 10474 10478 10482 10486 10489 10492 10495 10498 10500 10503 10506 10508 10511 10513 10515 10517 10518 10519 10521 10522 10524 10526 10528 10529 10531 10533 10535 10537 10539 10540 10541 10541 10542 10542 10543 10544 10545 10546 10547 10548 10549 10549 10549 10549 10549 10549 10549 10548 10548 10548 10548 10547 10546 10545 10544 10543 10543 10542 10541 10541 10541 10541 10540 10540 10539 10538